Voltar ao catálogo

COSMOS 1176 COOLANT

AtivoLEO
NORAD 29019·DEBRIS·🇷🇺 Russia

Lançado Apr 29, 1980 de Baikonur Cosmodrome

Loading…

Próximas Passagens (próximas 24 horas)

TLE

AtualizadoSource: Space-Track

Época: Sep 14, 2026, 04:05 UTC

1 29019U 80034F   26257.17038665  .00000401  00000-0  30360-3 0  9994
2 29019  64.8254 162.9662 0050865 234.4031 125.2294 14.05081238636366

Acompanhe COSMOS 1176 COOLANT em tempo real com AllMySat

Download on the App Store